When you browse on this site, cookies collect data to enhance your experience and personalize the content and advertising you see.
Visit our Privacy Policy to learn more. By continuing to use the site, you agree to this use of cookies and data.
  • In Schweiz
  • Länderverzeichnis
  • Für 7 Tage
  • Wassertemperatur
  • Wetterkarte
  • Widgets
  • user-avatar
    Anmelden

    Stündliche Wetter Moron de la Frontera

    Heute, 23 Oktober, Mittwoch

    Zeit Temperatur Niederschläge Wind Luftdruck Luftfeuchtigkeit
    00:00 +13°C° 0 mm 3 m/S 740 mmHg 69%
    01:00 +12°C° 0 mm 3 m/S 740 mmHg 70%
    02:00 +12°C° 0 mm 3 m/S 740 mmHg 71%
    03:00 +12°C° 0 mm 3 m/S 740 mmHg 72%
    04:00 +11°C° 0 mm 3 m/S 740 mmHg 71%
    05:00 +11°C° 0 mm 3 m/S 740 mmHg 70%
    06:00 +10°C° 0 mm 3 m/S 740 mmHg 69%
    07:00 +12°C° 0 mm 3 m/S 741 mmHg 64%
    08:00 +13°C° 0 mm 3 m/S 741 mmHg 59%
    09:00 +14°C° 0 mm 3 m/S 741 mmHg 54%
    10:00 +15°C° 0 mm 4 m/S 741 mmHg 49%
    11:00 +17°C° 0 mm 5 m/S 741 mmHg 45%
    12:00 +19°C° 0 mm 6 m/S 741 mmHg 41%
    13:00 +18°C° 0.1 mm 7 m/S 741 mmHg 44%
    14:00 +17°C° 0.1 mm 7 m/S 741 mmHg 48%
    15:00 +17°C° 0.1 mm 7 m/S 741 mmHg 52%
    16:00 +17°C° 0.1 mm 6 m/S 741 mmHg 53%
    17:00 +17°C° 0.1 mm 5 m/S 741 mmHg 54%
    18:00 +17°C° 0.1 mm 5 m/S 742 mmHg 56%
    19:00 +16°C° 0 mm 5 m/S 742 mmHg 56%
    20:00 +16°C° 0 mm 5 m/S 743 mmHg 57%
    21:00 +15°C° 0 mm 5 m/S 744 mmHg 58%
    22:00 +14°C° 0 mm 5 m/S 744 mmHg 63%
    23:00 +13°C° 0 mm 4 m/S 744 mmHg 69%

    Morgen, 24 Oktober, Donnerstag

    Zeit Temperatur Niederschläge Wind Luftdruck Luftfeuchtigkeit
    00:00 +12°C° 0 mm 4 m/S 745 mmHg 75%
    01:00 +12°C° 0 mm 4 m/S 745 mmHg 78%
    02:00 +11°C° 0 mm 3 m/S 745 mmHg 82%
    03:00 +11°C° 0 mm 3 m/S 746 mmHg 85%
    04:00 +10°C° 0 mm 3 m/S 746 mmHg 87%
    05:00 +10°C° 0 mm 3 m/S 746 mmHg 88%
    06:00 +10°C° 0 mm 2 m/S 746 mmHg 90%
    07:00 +12°C° 0 mm 2 m/S 747 mmHg 83%
    08:00 +13°C° 0 mm 2 m/S 747 mmHg 76%
    09:00 +14°C° 0 mm 2 m/S 748 mmHg 69%
    10:00 +16°C° 0 mm 2 m/S 748 mmHg 60%
    11:00 +17°C° 0 mm 2 m/S 748 mmHg 51%
    12:00 +19°C° 0 mm 3 m/S 748 mmHg 43%
    13:00 +19°C° 0 mm 2 m/S 748 mmHg 39%
    14:00 +20°C° 0 mm 2 m/S 748 mmHg 36%
    15:00 +21°C° 0 mm 2 m/S 748 mmHg 32%
    16:00 +21°C° 0 mm 1 m/S 748 mmHg 34%
    17:00 +20°C° 0 mm 1 m/S 748 mmHg 37%
    18:00 +18°C° 0 mm 1 m/S 748 mmHg 40%
    19:00 +18°C° 0 mm 1 m/S 748 mmHg 42%
    20:00 +16°C° 0 mm 1 m/S 749 mmHg 45%
    21:00 +16°C° 0 mm 1 m/S 749 mmHg 47%
    22:00 +15°C° 0 mm 2 m/S 749 mmHg 48%
    23:00 +15°C° 0 mm 2 m/S 749 mmHg 49%

    übermorgen, 25 Oktober, Freitag

    Zeit Temperatur Niederschläge Wind Luftdruck Luftfeuchtigkeit
    00:00 +15°C° 0 mm 2 m/S 748 mmHg 50%
    01:00 +15°C° 0 mm 2 m/S 748 mmHg 51%
    02:00 +14°C° 0 mm 2 m/S 748 mmHg 52%
    03:00 +13°C° 0 mm 3 m/S 748 mmHg 52%
    04:00 +13°C° 0 mm 3 m/S 748 mmHg 52%
    05:00 +13°C° 0 mm 3 m/S 748 mmHg 52%
    06:00 +13°C° 0 mm 3 m/S 748 mmHg 51%
    07:00 +16°C° 0 mm 3 m/S 748 mmHg 48%
    08:00 +17°C° 0 mm 2 m/S 748 mmHg 44%
    09:00 +19°C° 0 mm 2 m/S 749 mmHg 40%
    10:00 +21°C° 0 mm 2 m/S 748 mmHg 35%
    11:00 +24°C° 0 mm 2 m/S 748 mmHg 30%
    12:00 +27°C° 0 mm 1 m/S 748 mmHg 25%
    13:00 +27°C° 0 mm 1 m/S 748 mmHg 24%
    14:00 +28°C° 0 mm 1 m/S 748 mmHg 23%
    15:00 +28°C° 0 mm 1 m/S 747 mmHg 22%
    16:00 +26°C° 0 mm 1 m/S 747 mmHg 26%
    17:00 +24°C° 0 mm 1 m/S 747 mmHg 30%
    18:00 +22°C° 0 mm 1 m/S 747 mmHg 34%
    19:00 +21°C° 0 mm 1 m/S 747 mmHg 36%
    20:00 +21°C° 0 mm 1 m/S 747 mmHg 39%
    21:00 +19°C° 0 mm 2 m/S 747 mmHg 41%
    22:00 +19°C° 0 mm 1 m/S 747 mmHg 42%
    23:00 +19°C° 0 mm 1 m/S 747 mmHg 42%

    26 Oktober, Samstag

    Zeit Temperatur Niederschläge Wind Luftdruck Luftfeuchtigkeit
    00:00 +18°C° 0 mm 1 m/S 747 mmHg 43%
    01:00 +18°C° 0 mm 1 m/S 747 mmHg 43%
    02:00 +18°C° 0 mm 1 m/S 747 mmHg 43%
    03:00 +16°C° 0 mm 1 m/S 746 mmHg 42%
    04:00 +16°C° 0 mm 1 m/S 746 mmHg 42%
    05:00 +16°C° 0 mm 1 m/S 746 mmHg 42%
    06:00 +16°C° 0 mm 1 m/S 746 mmHg 42%
    07:00 +18°C° 0 mm 1 m/S 747 mmHg 38%
    08:00 +20°C° 0 mm 1 m/S 747 mmHg 34%
    09:00 +22°C° 0 mm 1 m/S 747 mmHg 30%
    10:00 +24°C° 0 mm 1 m/S 747 mmHg 27%
    11:00 +26°C° 0 mm 1 m/S 747 mmHg 23%
    12:00 +28°C° 0 mm 1 m/S 747 mmHg 20%
    13:00 +28°C° 0 mm 2 m/S 746 mmHg 20%
    14:00 +29°C° 0 mm 2 m/S 746 mmHg 20%
    15:00 +29°C° 0 mm 3 m/S 746 mmHg 19%
    16:00 +27°C° 0 mm 2 m/S 746 mmHg 24%
    17:00 +25°C° 0 mm 2 m/S 746 mmHg 28%
    18:00 +23°C° 0 mm 1 m/S 746 mmHg 32%
    19:00 +23°C° 0 mm 1 m/S 746 mmHg 34%
    20:00 +22°C° 0 mm 1 m/S 746 mmHg 37%
    21:00 +21°C° 0 mm 1 m/S 746 mmHg 39%
    22:00 +21°C° 0 mm 1 m/S 746 mmHg 39%
    23:00 +20°C° 0 mm 1 m/S 746 mmHg 40%

    27 Oktober, Sonntag

    Zeit Temperatur Niederschläge Wind Luftdruck Luftfeuchtigkeit
    00:00 +20°C° 0 mm 1 m/S 746 mmHg 40%
    01:00 +20°C° 0 mm 1 m/S 746 mmHg 40%
    02:00 +19°C° 0 mm 1 m/S 746 mmHg 40%
    03:00 +19°C° 0 mm 1 m/S 745 mmHg 40%
    04:00 +19°C° 0 mm 1 m/S 745 mmHg 40%
    05:00 +19°C° 0 mm 1 m/S 745 mmHg 40%
    06:00 +19°C° 0 mm 1 m/S 745 mmHg 40%
    07:00 +20°C° 0 mm 1 m/S 745 mmHg 36%
    08:00 +22°C° 0 mm 1 m/S 746 mmHg 33%
    09:00 +24°C° 0 mm 1 m/S 746 mmHg 29%
    10:00 +26°C° 0 mm 1 m/S 746 mmHg 26%
    11:00 +28°C° 0 mm 1 m/S 746 mmHg 23%
    12:00 +29°C° 0 mm 1 m/S 746 mmHg 20%
    13:00 +30°C° 0 mm 1 m/S 745 mmHg 21%
    14:00 +30°C° 0 mm 2 m/S 745 mmHg 21%
    15:00 +30°C° 0 mm 2 m/S 745 mmHg 21%
    16:00 +28°C° 0 mm 2 m/S 745 mmHg 25%
    17:00 +26°C° 0 mm 2 m/S 745 mmHg 29%
    18:00 +24°C° 0 mm 1 m/S 745 mmHg 33%
    19:00 +23°C° 0 mm 1 m/S 745 mmHg 36%
    20:00 +22°C° 0 mm 1 m/S 745 mmHg 39%
    21:00 +21°C° 0 mm 1 m/S 745 mmHg 42%
    22:00 +21°C° 0 mm 1 m/S 745 mmHg 44%
    23:00 +20°C° 0 mm 1 m/S 746 mmHg 45%

    28 Oktober, Montag

    Zeit Temperatur Niederschläge Wind Luftdruck Luftfeuchtigkeit
    00:00 +18°C° 0 mm 0 m/S 746 mmHg 47%
    01:00 +20°C° 0 mm 1 m/S 745 mmHg 47%
    02:00 +20°C° 0 mm 1 m/S 745 mmHg 46%
    03:00 +20°C° 0 mm 1 m/S 745 mmHg 46%
    04:00 +20°C° 0 mm 1 m/S 745 mmHg 46%
    05:00 +20°C° 0 mm 1 m/S 745 mmHg 45%
    06:00 +20°C° 0 mm 1 m/S 745 mmHg 45%
    07:00 +20°C° 0 mm 1 m/S 746 mmHg 44%
    08:00 +21°C° 0 mm 1 m/S 746 mmHg 42%
    09:00 +20°C° 0 mm 0 m/S 746 mmHg 41%
    10:00 +23°C° 0 mm 1 m/S 746 mmHg 38%
    11:00 +25°C° 0 mm 2 m/S 746 mmHg 34%
    12:00 +26°C° 0 mm 2 m/S 746 mmHg 31%
    13:00 +27°C° 0 mm 3 m/S 746 mmHg 31%
    14:00 +27°C° 0 mm 4 m/S 746 mmHg 31%
    15:00 +28°C° 0 mm 5 m/S 746 mmHg 31%
    16:00 +26°C° 0 mm 4 m/S 746 mmHg 38%
    17:00 +23°C° 0 mm 4 m/S 746 mmHg 45%
    18:00 +21°C° 0 mm 3 m/S 746 mmHg 51%
    19:00 +20°C° 0 mm 2 m/S 746 mmHg 57%
    20:00 +20°C° 0 mm 2 m/S 746 mmHg 62%
    21:00 +20°C° 0 mm 1 m/S 747 mmHg 67%
    22:00 +20°C° 0 mm 1 m/S 747 mmHg 69%
    23:00 +19°C° 0 mm 1 m/S 746 mmHg 71%

    29 Oktober, Dienstag

    Zeit Temperatur Niederschläge Wind Luftdruck Luftfeuchtigkeit
    00:00 +19°C° 0 mm 1 m/S 746 mmHg 73%
    01:00 +17°C° 0 mm 0 m/S 746 mmHg 75%
    02:00 +17°C° 0 mm 0 m/S 746 mmHg 76%
    03:00 +17°C° 0 mm 0 m/S 746 mmHg 78%
    04:00 +16°C° 0 mm 0 m/S 746 mmHg 79%
    05:00 +16°C° 0 mm 0 m/S 746 mmHg 79%
    06:00 +18°C° 0 mm 1 m/S 746 mmHg 80%
    07:00 +19°C° 0 mm 1 m/S 746 mmHg 75%
    08:00 +20°C° 0 mm 1 m/S 747 mmHg 69%
    09:00 +21°C° 0 mm 1 m/S 747 mmHg 64%
    10:00 +23°C° 0 mm 1 m/S 747 mmHg 59%
    11:00 +25°C° 0 mm 1 m/S 747 mmHg 54%
    12:00 +26°C° 0 mm 2 m/S 747 mmHg 49%
    13:00 +27°C° 0 mm 2 m/S 747 mmHg 46%
    14:00 +27°C° 0 mm 2 m/S 747 mmHg 44%
    15:00 +28°C° 0 mm 2 m/S 746 mmHg 41%
    16:00 +26°C° 0 mm 2 m/S 746 mmHg 45%
    17:00 +25°C° 0 mm 1 m/S 747 mmHg 49%
    18:00 +24°C° 0 mm 1 m/S 747 mmHg 52%
    19:00 +23°C° 0 mm 1 m/S 747 mmHg 58%
    20:00 +22°C° 0 mm 1 m/S 748 mmHg 64%
    21:00 +21°C° 0 mm 1 m/S 748 mmHg 69%
    22:00 +21°C° 0 mm 1 m/S 748 mmHg 72%
    23:00 +20°C° 0 mm 1 m/S 748 mmHg 75%
    Mehr zeigen